Weather History for Storm Lake, IA

Change the Weather History Date:

Wednesday, November 27, 2013

  Actual Average Record
Temperature  
Mean Temperature 16 °F -  
Max Temperature 28 °F 39 °F 69 °F (1998)
Min Temperature 3 °F 24 °F -7 °F (2014)
Degree Days  
Heating Degree Days 50    
Moisture  
Dew Point 7 °F    
Average Humidity 66    
Maximum Humidity 85    
Minimum Humidity 43    
Precipitation  
Precipitation 0.00 in - - ()
Sea Level Pressure  
Sea Level Pressure 30.17 in    
Wind  
Wind Speed 11 mph (SW)    
Max Wind Speed 22 mph    
Max Gust Speed 29 mph    
Visibility 10 miles    
Events      
Averages and records for this station are not official NWS values.
T = Trace of Precipitation, MM = Missing Value Source: NWS Daily Summary

Daily Weather History Graph

Daily Weather History Graph

Search for Another Location

Airport:

Trip Planner

Search our weather history database for the weather conditions in past years. The results will help you decide how hot, cold, wet, or windy it might be!

Date:

Astronomy

Nov. 27, 2013 Rise Set
Actual Time 7:27 AM CST 4:50 PM CST
Civil Twilight 6:55 AM CST 5:21 PM CST
Nautical Twilight 6:20 AM CST 5:56 PM CST
Astronomical Twilight 5:47 AM CST 6:29 PM CST
Moon 1:22 AM CST 1:34 PM CST
Length of Visible Light 10h 25m
Length of Day
9h 22m
Waning Crescent, 31% of the Moon is Illuminated
Nov 27
Waning Crescent
Dec 2
New
Dec 9
First Quarter
Dec 17
Full
Dec 25
Last Quarter

Hourly Weather History & Observations

Time (CST) Temp. Windchill Dew Point Humidity Pressure Visibility Wind Dir Wind Speed Gust Speed Precip Events Conditions
12:15 AM 12.2 °F -1.8 °F 5.0 °F 73% 30.35 in 10.0 mi NNW 11.5 mph - N/A   Clear
12:35 AM 12.2 °F -1.8 °F 5.0 °F 73% 30.35 in 10.0 mi NNW 11.5 mph - N/A   Clear
12:55 AM 12.2 °F -1.0 °F 5.0 °F 73% 30.34 in 10.0 mi NNW 10.4 mph - N/A   Clear
1:15 AM 12.2 °F 1.7 °F 5.0 °F 73% 30.34 in 10.0 mi NNW 6.9 mph - N/A   Clear
1:35 AM 10.4 °F -0.4 °F 3.2 °F 73% 30.34 in 10.0 mi NNW 6.9 mph - N/A   Clear
1:55 AM 8.6 °F -4.7 °F 3.2 °F 79% 30.34 in 10.0 mi NNW 9.2 mph - N/A   Clear
2:15 AM 8.6 °F -3.7 °F 3.2 °F 79% 30.34 in 10.0 mi NNW 8.1 mph - N/A   Clear
2:35 AM 6.8 °F -5.9 °F 3.2 °F 85% 30.34 in 10.0 mi NNW 8.1 mph - N/A   Clear
2:55 AM 8.6 °F -4.7 °F 3.2 °F 79% 30.34 in 10.0 mi North 9.2 mph - N/A   Clear
3:15 AM 6.8 °F -5.9 °F 3.2 °F 85% 30.33 in 10.0 mi North 8.1 mph - N/A   Clear
3:35 AM 6.8 °F -3.5 °F 3.2 °F 85% 30.34 in 10.0 mi NNW 5.8 mph - N/A   Clear
3:55 AM 6.8 °F -4.8 °F 3.2 °F 85% 30.34 in 10.0 mi NNW 6.9 mph - N/A   Clear
4:15 AM 6.8 °F -3.5 °F 1.4 °F 79% 30.33 in 10.0 mi NNW 5.8 mph - N/A   Clear
4:35 AM 6.8 °F -2.0 °F 1.4 °F 79% 30.33 in 10.0 mi NW 4.6 mph - N/A   Clear
4:55 AM 5.0 °F -2.1 °F 1.4 °F 85% 30.33 in 10.0 mi NW 3.5 mph - N/A   Clear
5:15 AM 5.0 °F -5.6 °F 1.4 °F 85% 30.33 in 10.0 mi NW 5.8 mph - N/A   Clear
5:35 AM 5.0 °F -4.1 °F 1.4 °F 85% 30.33 in 10.0 mi WNW 4.6 mph - N/A   Clear
5:55 AM 5.0 °F -8.1 °F -0.4 °F 78% 30.33 in 10.0 mi WNW 8.1 mph - N/A   Clear
6:15 AM 3.2 °F -10.3 °F -0.4 °F 85% 30.34 in 10.0 mi West 8.1 mph - N/A   Clear
6:35 AM 5.0 °F -6.9 °F 1.4 °F 85% 30.33 in 10.0 mi West 6.9 mph - N/A   Clear
6:55 AM 5.0 °F -6.9 °F 1.4 °F 85% 30.33 in 10.0 mi WNW 6.9 mph - N/A   Clear
7:15 AM 5.0 °F -5.6 °F 1.4 °F 85% 30.32 in 10.0 mi WNW 5.8 mph - N/A   Clear
7:35 AM 3.2 °F -7.8 °F -0.4 °F 85% 30.32 in 10.0 mi WNW 5.8 mph - N/A   Clear
7:55 AM 6.8 °F -2.0 °F 1.4 °F 79% 30.32 in 9.0 mi NNW 4.6 mph - N/A   Clear
8:15 AM 8.6 °F - 3.2 °F 79% 30.32 in 10.0 mi Calm Calm - N/A   Clear
8:35 AM 8.6 °F - 5.0 °F 85% 30.31 in 10.0 mi Calm Calm - N/A   Clear
8:55 AM 10.4 °F 2.2 °F 6.8 °F 85% 30.30 in - SE 4.6 mph - N/A   Clear
9:15 AM 12.2 °F 1.7 °F 6.8 °F 79% 30.30 in 10.0 mi SE 6.9 mph - N/A   Clear
9:35 AM 14.0 °F 5.1 °F 6.8 °F 73% 30.30 in 10.0 mi SSE 5.8 mph - N/A   Clear
9:55 AM 14.0 °F 2.9 °F 8.6 °F 79% 30.28 in 10.0 mi SSE 8.1 mph - N/A   Clear
10:15 AM 15.8 °F 4.2 °F 8.6 °F 73% 30.29 in 10.0 mi South 9.2 mph - N/A   Clear
10:35 AM 17.6 °F 6.4 °F 6.8 °F 63% 30.29 in 10.0 mi South 9.2 mph - N/A   Clear
10:55 AM 17.6 °F 5.7 °F 6.8 °F 63% 30.27 in 10.0 mi South 10.4 mph - N/A   Clear
11:15 AM 19.4 °F 7.2 °F 8.6 °F 63% 30.27 in 10.0 mi SSW 11.5 mph - N/A   Clear
11:35 AM 19.4 °F 7.2 °F 8.6 °F 63% 30.25 in 10.0 mi SSW 11.5 mph - N/A   Clear
11:55 AM 21.2 °F 8.3 °F 8.6 °F 58% 30.23 in 10.0 mi South 13.8 mph - N/A   Clear
12:15 PM 23.0 °F 10.6 °F 8.6 °F 54% 30.20 in 10.0 mi South 13.8 mph - N/A   Clear
12:35 PM 23.0 °F 10.6 °F 8.6 °F 54% 30.18 in 10.0 mi South 13.8 mph - N/A   Clear
12:55 PM 24.8 °F 12.4 °F 8.6 °F 50% 30.17 in 10.0 mi South 15.0 mph - N/A   Clear
1:15 PM 24.8 °F 11.5 °F 8.6 °F 50% 30.15 in 10.0 mi South 17.3 mph - N/A   Clear
1:35 PM 26.6 °F 13.8 °F 8.6 °F 47% 30.13 in 10.0 mi South 17.3 mph - N/A   Clear
1:55 PM 26.6 °F 13.4 °F 8.6 °F 47% 30.12 in 10.0 mi South 18.4 mph - N/A   Clear
2:15 PM 26.6 °F 13.8 °F 8.6 °F 47% 30.11 in 3.0 mi South 17.3 mph - N/A   Haze
2:35 PM 28.4 °F 15.4 °F 8.6 °F 43% 30.08 in 10.0 mi South 19.6 mph - N/A   Clear
2:55 PM 28.4 °F 15.4 °F 8.6 °F 43% 30.07 in 10.0 mi South 19.6 mph 25.3 mph N/A   Clear
3:15 PM 28.4 °F 14.7 °F 8.6 °F 43% 30.06 in 10.0 mi South 21.9 mph 28.8 mph N/A   Clear
3:35 PM 26.6 °F 12.7 °F 8.6 °F 47% 30.05 in 10.0 mi South 20.7 mph - N/A   Clear
3:55 PM 26.6 °F 12.7 °F 8.6 °F 47% 30.03 in 10.0 mi South 20.7 mph 26.5 mph N/A   Clear
4:15 PM 26.6 °F 12.7 °F 8.6 °F 47% 30.02 in 10.0 mi South 20.7 mph 27.6 mph N/A   Clear
4:35 PM 24.8 °F 10.3 °F 8.6 °F 50% 30.00 in 10.0 mi South 20.7 mph 28.8 mph N/A   Clear
4:55 PM 24.8 °F 10.7 °F 8.6 °F 50% 29.99 in 10.0 mi South 19.6 mph 25.3 mph N/A   Clear
5:15 PM 24.8 °F 11.1 °F 10.4 °F 54% 30.00 in 10.0 mi South 18.4 mph - N/A   Clear
5:35 PM 24.8 °F 11.9 °F 10.4 °F 54% 30.00 in 10.0 mi South 16.1 mph - N/A   Clear
5:55 PM 24.8 °F 14.0 °F 10.4 °F 54% 30.02 in 10.0 mi SSW 11.5 mph - N/A   Clear
6:15 PM 24.8 °F 13.4 °F 10.4 °F 54% 30.01 in 10.0 mi SSW 12.7 mph - N/A   Clear
6:35 PM 24.8 °F 11.1 °F 10.4 °F 54% 30.00 in 10.0 mi South 18.4 mph - N/A   Clear
6:55 PM 24.8 °F 10.7 °F 10.4 °F 54% 29.99 in 10.0 mi SSW 19.6 mph - N/A   Clear
7:15 PM 24.8 °F 11.9 °F 10.4 °F 54% 30.00 in 10.0 mi South 16.1 mph - N/A   Clear
7:35 PM 24.8 °F 12.4 °F 10.4 °F 54% 29.99 in 10.0 mi South 15.0 mph - N/A   Clear
7:55 PM 23.0 °F 9.6 °F 10.4 °F 59% 29.98 in 10.0 mi South 16.1 mph - N/A   Clear
8:15 PM 23.0 °F 9.6 °F 12.2 °F 63% 29.97 in 10.0 mi South 16.1 mph - N/A   Clear
8:35 PM 23.0 °F 9.6 °F 12.2 °F 63% 29.96 in 10.0 mi South 16.1 mph - N/A   Clear
8:55 PM 23.0 °F 9.6 °F 12.2 °F 63% 29.95 in 10.0 mi South 16.1 mph - N/A   Clear
9:15 PM 23.0 °F 11.7 °F 12.2 °F 63% 29.95 in 10.0 mi South 11.5 mph - N/A   Clear
9:35 PM 21.2 °F 10.9 °F 12.2 °F 68% 29.95 in 10.0 mi South 9.2 mph - N/A   Clear
9:55 PM 21.2 °F 8.3 °F 12.2 °F 68% 29.94 in 10.0 mi SSW 13.8 mph - N/A   Clear
10:15 PM 23.0 °F 10.6 °F 12.2 °F 63% 29.94 in 10.0 mi SSW 13.8 mph - N/A   Clear
10:35 PM 24.8 °F 13.4 °F 12.2 °F 59% 29.94 in 10.0 mi SSW 12.7 mph 21.9 mph N/A   Clear
10:55 PM 24.8 °F 12.9 °F 14.0 °F 64% 29.94 in 10.0 mi SSW 13.8 mph - N/A   Clear
11:15 PM 23.0 °F 10.6 °F 14.0 °F 68% 29.94 in 10.0 mi SW 13.8 mph - N/A   Clear
11:35 PM 21.2 °F 10.1 °F 12.2 °F 68% 29.94 in 10.0 mi SW 10.4 mph - N/A   Clear
11:55 PM 21.2 °F 9.5 °F 12.2 °F 68% 29.95 in 10.0 mi SW 11.5 mph - N/A   Clear